Wind_Speed
18 18 19 15 24 18 23 24 21 21 20 20 18 18 19 18 17 16 16 16 17 18 15 15 16 16 15 12 14 22 13 7 7 8 5 5 2 4 4 2 6 11 12
20 20 18 20 23 27 21 22 22 20 19 19 19 18 17 17 17 17 16 16 16 16 15 16 16 17 17 14 11 10 12 23 24 15 13 12 11 3 7 5 14 16 3
18 20 20 21 21 23 23 21 23 20 20 18 18 17 18 19 19 18 18 16 16 16 16 16 16 17 18 17 14 12 12 15 12 14 10 9 9 9 8 7 10 8 7
19 18 20 20 21 21 21 20 20 21 21 20 20 19 19 19 20 19 19 17 17 17 16 15 15 15 15 17 17 15 12 12 10 9 8 7 7 6 6 4 3 2 3
19 18 18 18 20 21 20 18 20 21 21 21 20 20 21 21 21 20 18 16 15 15 15 14 13 14 14 13 14 15 14 11 10 8 6 6 4 3 3 1 2 3 4
19 18 19 20 21 20 20 19 21 21 21 21 20 22 22 21 21 19 18 17 15 15 14 14 13 12 12 14 12 13 14 13 11 11 8 6 4 3 2 2 1 2 3
16 18 20 20 19 19 19 20 20 21 22 22 22 23 23 23 20 17 15 14 14 14 12 12 11 11 10 9 11 12 13 12 12 10 9 7 6 5 4 2 3 4 4
15 14 16 18 19 19 19 19 20 22 21 22 23 23 20 18 18 16 14 14 15 13 11 10 10 10 9 9 9 11 11 10 9 8 7 6 6 7 7 8 9 9 9
16 14 16 17 18 19 20 21 21 22 21 21 21 18 17 17 15 14 13 13 12 11 10 9 10 10 10 10 10 9 9 7 7 6 6 7 6 8 10 10 12 14 14
13 13 14 15 17 19 20 22 23 21 22 20 18 15 13 13 12 12 12 12 13 13 12 10 10 10 10 9 9 9 8 10 10 10 9 8 8 9 11 13 15 16 18
14 14 14 15 16 20 22 23 23 22 20 17 16 13 11 11 12 12 13 14 14 14 13 13 13 12 13 12 13 13 12 11 11 10 9 11 11 13 15 18 20 21 22
18 18 19 21 23 25 25 23 22 19 17 16 13 11 10 10 11 12 13 13 14 14 15 14 14 13 14 14 14 11 10 9 9 9 11 13 14 15 18 19 21 24 26
19 19 24 26 26 25 24 22 20 18 17 15 12 11 11 11 11 11 12 13 14 15 14 14 14 13 12 11 8 8 8 8 9 11 12 14 15 16 17 20 21 23 25
19 22 24 24 22 22 20 20 19 16 16 15 12 10 10 10 11 12 11 13 14 13 12 13 13 11 9 8 8 8 9 10 11 13 15 17 18 20 23 24 26 25 23
17 19 19 19 16 18 18 18 17 16 16 14 12 12 11 10 10 10 10 11 12 10 10 10 10 8 7 6 7 8 10 12 15 18 20 22 24 26 29 33 36 30 19
17 16 16 14 13 17 17 16 16 15 14 13 12 9 8 8 9 9 9 9 9 8 9 8 6 6 7 6 7 9 12 14 17 20 23 25 28 29 31 32 35 34 29
17 16 15 15 14 13 13 13 13 12 11 8 7 6 4 6 8 8 6 7 7 9 10 8 6 6 6 6 9 12 14 16 19 21 24 28 28 30 31 33 33 34 32
10 15 16 15 13 12 11 9 8 8 6 4 4 4 4 5 7 6 5 5 6 8 8 8 10 9 10 9 11 13 15 18 21 24 28 31 31 34 36 35 35 29 33
7 8 12 13 11 10 10 8 7 6 4 2 2 2 4 5 6 5 5 4 4 5 7 9 10 10 11 12 15 17 19 20 21 25 28 27 29 33 41 45 39 35 35
9 9 10 10 11 11 9 9 6 3 2 1 2 4 6 6 6 5 4 4 4 6 8 9 10 11 15 18 19 19 20 21 23 25 27 30 33 37 44 54 52 54 46
10 10 11 10 10 11 9 6 4 2 1 2 4 6 7 6 5 4 3 2 4 5 8 10 11 14 15 16 17 19 20 22 24 25 27 32 36 41 47 56 57 60 51
9 10 10 11 10 10 9 7 5 3 1 2 4 5 7 6 5 4 3 5 6 7 9 11 13 15 17 18 18 20 22 22 23 27 29 32 36 40 48 58 59 61 53
12 12 11 11 11 11 10 8 6 4 3 2 1 2 4 5 4 2 2 5 7 9 11 12 13 14 16 18 18 21 24 26 30 28 32 35 38 41 48 56 61 60 52
11 13 14 14 13 13 11 9 7 5 3 3 2 2 3 3 4 4 4 5 7 9 10 12 13 14 14 17 20 23 26 29 31 34 36 35 39 42 48 55 61 56 46
10 12 15 16 17 15 12 10 9 7 5 4 4 3 4 4 4 3 4 5 6 8 10 12 14 16 19 22 25 27 28 31 33 34 36 40 41 40 48 56 61 49 36
11 12 14 16 16 15 14 12 10 8 7 6 5 3 3 6 6 4 4 4 6 8 9 13 17 21 23 24 27 29 30 32 36 36 36 38 39 40 49 56 56 43 31
Wind_Direction
102 97 97 130 161 131 112 108 111 105 101 98 95 91 84 80 76 75 75 73 71 58 62 57 62 61 65 78 76 53 71 140 142 113 93 79 102 85 44 247 231 212 227
100 98 94 94 96 97 108 108 108 101 97 95 93 89 85 81 80 85 84 77 67 62 64 56 54 57 63 66 74 59 42 97 83 95 73 64 65 165 111 59 43 208 232
93 96 98 105 110 110 111 108 101 99 95 98 98 95 87 83 83 82 76 70 63 62 58 51 52 53 61 70 70 75 91 84 74 81 82 76 69 58 66 61 25 52 65
95 96 99 107 107 108 107 105 104 104 105 107 100 92 86 83 84 81 74 66 65 63 60 57 52 58 65 66 67 71 86 104 95 94 76 60 53 56 59 60 66 73 95
107 105 102 108 110 109 108 111 108 106 101 96 92 86 86 84 83 79 77 73 66 64 68 66 59 59 65 66 65 61 76 96 101 103 88 84 71 56 62 39 13 337 332
109 117 120 123 121 117 116 113 109 105 98 94 92 90 87 88 86 85 82 79 75 69 65 65 64 60 60 67 62 66 70 74 81 76 75 76 76 74 49 42 334 288 266
113 121 129 132 128 121 117 112 107 102 103 99 93 90 92 89 88 86 84 80 74 66 64 67 69 67 66 61 67 69 68 68 72 72 64 67 50 26 6 334 292 273 270
101 113 119 121 120 118 114 111 110 109 106 100 99 100 97 97 90 84 77 72 70 67 59 61 67 71 58 55 60 71 69 65 63 57 46 33 9 354 336 319 309 302 291
101 111 115 115 117 115 116 115 111 111 109 107 107 103 98 89 85 87 83 74 74 75 70 62 68 69 66 71 85 78 76 71 65 55 31 14 357 336 321 313 299 293 284
102 105 117 118 121 120 114 113 115 116 112 110 107 95 93 90 95 91 83 74 70 76 78 87 86 83 82 81 82 85 69 64 57 52 37 19 0 336 320 306 292 283 276
105 112 112 118 126 123 119 118 114 113 113 110 99 91 91 91 87 82 81 75 78 79 80 91 94 95 95 89 86 83 74 64 52 40 18 7 348 332 316 303 293 285 276
109 111 111 114 121 122 122 121 116 110 101 102 102 97 88 80 72 66 70 72 77 85 92 92 88 90 93 85 78 70 65 54 39 21 5 353 344 338 333 319 305 293 285
116 120 115 119 121 123 125 118 114 108 101 103 99 94 81 69 65 67 67 75 79 78 85 84 83 79 78 71 55 44 39 22 10 358 353 348 337 327 333 340 330 314 298
118 120 124 125 126 128 127 121 118 116 108 105 102 92 78 59 61 64 59 69 75 78 84 77 76 75 65 43 26 19 5 1 351 347 346 344 342 336 333 336 339 335 312
124 123 128 129 125 131 126 127 128 119 111 105 96 81 67 58 60 67 64 72 75 76 82 85 82 80 63 36 20 7 352 344 345 346 344 345 341 337 337 339 341 341 328
141 137 134 136 133 133 135 134 129 120 110 104 89 80 62 52 54 62 61 72 79 74 80 75 71 53 35 26 0 346 343 341 341 339 338 337 338 334 332 336 337 336 329
145 142 144 138 138 136 139 136 127 117 106 94 92 77 60 43 45 60 61 69 65 59 56 50 40 28 21 7 348 342 340 336 332 331 327 331 328 327 329 331 335 335 327
151 150 149 148 145 144 143 134 123 116 110 106 61 56 45 42 47 61 51 65 60 59 41 29 22 15 5 353 342 338 336 332 330 326 329 330 326 325 324 318 324 335 326
160 168 163 159 155 159 149 147 142 134 126 96 33 12 22 32 43 59 62 59 45 47 36 26 13 5 354 340 332 329 326 325 323 325 327 327 324 326 322 325 338 345 332
177 181 187 187 174 176 170 164 165 141 127 78 1 350 8 10 30 39 40 26 6 18 10 359 346 349 346 341 337 335 330 324 327 325 323 325 326 327 329 326 342 343 336
206 197 194 200 203 190 188 192 198 174 153 340 6 355 347 355 19 41 9 336 321 7 346 335 342 338 341 336 334 337 334 327 325 324 325 322 327 328 332 324 342 335 331
216 218 203 195 199 205 211 211 201 200 237 346 352 336 335 345 13 16 327 324 323 344 340 341 340 341 339 342 340 342 338 333 321 320 319 319 320 324 326 330 336 336 329
211 217 223 211 209 210 214 223 234 237 224 263 300 305 309 332 343 340 290 310 327 339 344 341 338 341 339 342 345 347 342 337 337 335 326 321 317 322 326 329 334 334 332
228 223 220 228 223 219 218 226 234 248 276 281 260 243 270 295 307 319 324 332 346 344 342 338 336 338 340 340 339 339 338 334 331 332 336 330 322 322 326 327 335 334 333
225 239 241 230 230 232 229 228 236 239 228 218 234 243 255 252 261 293 313 329 344 332 340 333 336 335 338 336 334 334 335 333 331 331 332 333 332 333 328 329 335 338 333
243 250 250 247 243 239 238 232 231 229 233 229 248 235 269 286 283 275 283 306 315 317 328 328 333 333 334 332 329 332 334 338 333 333 337 336 333 339 332 333 339 341 343
Height
5883 5883 5884 5885 5886 5887 5891 5891 5893 5894 5895 5896 5898 5899 5897 5898 5897 5897 5896 5896 5895 5895 5894 5893 5893 5892 5891 5890 5890 5886 5885 5886 5888 5890 5891 5891 5893 5893 5893 5894 5894 5894 5895
5886 5886 5887 5887 5887 5891 5893 5894 5895 5896 5897 5898 5899 5899 5900 5900 5900 5899 5899 5899 5898 5897 5897 5895 5894 5894 5893 5892 5891 5890 5890 5888 5889 5892 5893 5893 5893 5894 5895 5894 5893 5894 5896
5889 5889 5891 5892 5894 5895 5897 5898 5897 5898 5899 5901 5901 5902 5901 5901 5901 5900 5900 5900 5900 5899 5898 5897 5897 5897 5896 5896 5894 5894 5894 5892 5893 5894 5895 5895 5895 5896 5896 5896 5896 5896 5897
5893 5894 5894 5895 5897 5897 5897 5899 5899 5901 5902 5903 5904 5904 5903 5903 5903 5902 5902 5902 5902 5901 5900 5900 5899 5899 5899 5898 5898 5898 5897 5896 5896 5897 5897 5896 5897 5898 5898 5898 5899 5899 5899
5896 5897 5898 5899 5899 5900 5901 5902 5903 5905 5905 5906 5906 5906 5905 5906 5906 5905 5904 5904 5904 5903 5902 5902 5901 5900 5901 5901 5900 5900 5899 5899 5900 5900 5900 5900 5900 5899 5900 5900 5900 5901 5900
5899 5900 5902 5903 5904 5904 5905 5906 5906 5907 5908 5908 5909 5909 5909 5909 5908 5908 5908 5907 5907 5906 5905 5905 5904 5903 5902 5902 5901 5901 5901 5901 5901 5901 5900 5900 5900 5899 5899 5899 5899 5899 5899
5901 5902 5903 5905 5907 5908 5908 5909 5909 5910 5911 5911 5912 5912 5913 5913 5913 5913 5911 5910 5910 5909 5908 5907 5906 5905 5904 5903 5903 5902 5902 5902 5902 5902 5902 5901 5901 5900 5899 5897 5897 5897 5897
5902 5904 5905 5906 5908 5909 5909 5911 5912 5913 5914 5915 5915 5916 5917 5918 5917 5915 5914 5913 5913 5912 5910 5909 5909 5908 5907 5906 5905 5904 5904 5904 5904 5903 5902 5902 5901 5900 5899 5898 5897 5896 5896
5906 5907 5908 5908 5909 5910 5911 5913 5915 5917 5918 5919 5920 5920 5921 5920 5919 5918 5917 5917 5916 5914 5912 5911 5910 5909 5907 5907 5907 5906 5905 5904 5903 5903 5903 5902 5901 5899 5899 5898 5897 5896 5894
5908 5909 5910 5911 5912 5913 5915 5917 5919 5920 5922 5923 5923 5924 5924 5923 5922 5921 5920 5920 5918 5916 5915 5914 5913 5912 5910 5909 5908 5908 5907 5907 5906 5905 5905 5904 5902 5900 5898 5896 5894 5893 5892
5911 5912 5912 5913 5915 5916 5919 5921 5923 5924 5926 5926 5926 5926 5927 5926 5924 5924 5923 5921 5919 5919 5918 5917 5915 5914 5913 5912 5911 5910 5910 5909 5907 5906 5905 5904 5902 5900 5897 5895 5893 5890 5888
5916 5916 5916 5917 5920 5921 5922 5925 5927 5928 5929 5929 5929 5930 5929 5928 5927 5925 5925 5923 5922 5921 5919 5918 5917 5916 5916 5915 5913 5912 5911 5910 5909 5907 5905 5903 5901 5898 5895 5892 5889 5886 5883
5920 5920 5921 5922 5923 5925 5926 5928 5929 5930 5931 5932 5932 5931 5931 5930 5929 5928 5927 5925 5925 5923 5921 5920 5919 5918 5918 5916 5916 5914 5912 5911 5909 5907 5905 5903 5900 5897 5893 5890 5887 5883 5879
5923 5924 5925 5926 5927 5929 5930 5930 5931 5932 5933 5933 5933 5933 5933 5932 5931 5930 5928 5927 5926 5925 5924 5923 5922 5921 5920 5919 5918 5917 5915 5912 5910 5906 5903 5900 5897 5894 5891 5888 5884 5880 5875
5927 5928 5929 5930 5932 5933 5934 5933 5934 5935 5935 5935 5935 5934 5934 5933 5933 5931 5930 5929 5928 5927 5927 5925 5924 5923 5922 5920 5918 5916 5913 5911 5908 5905 5901 5898 5893 5889 5885 5880 5875 5873 5871
5929 5930 5932 5933 5935 5935 5936 5936 5936 5937 5937 5936 5936 5936 5934 5934 5934 5932 5931 5931 5930 5928 5927 5926 5926 5924 5922 5919 5917 5915 5913 5910 5907 5904 5899 5894 5889 5886 5882 5878 5871 5866 5863
5931 5932 5934 5936 5937 5938 5939 5939 5938 5938 5938 5938 5938 5937 5935 5935 5935 5934 5933 5932 5931 5930 5927 5927 5926 5924 5922 5919 5918 5916 5913 5909 5906 5902 5897 5892 5888 5883 5878 5873 5868 5862 5858
5935 5934 5934 5936 5938 5939 5940 5940 5940 5941 5941 5940 5940 5938 5937 5936 5935 5934 5934 5933 5931 5931 5929 5927 5925 5924 5922 5920 5917 5913 5911 5907 5904 5899 5894 5889 5882 5876 5872 5867 5862 5856 5849
5936 5938 5938 5937 5938 5939 5940 5940 5941 5942 5942 5942 5942 5940 5938 5936 5935 5934 5934 5933 5932 5931 5929 5927 5926 5924 5921 5919 5916 5912 5909 5906 5901 5896 5891 5886 5878 5872 5864 5857 5850 5845 5839
5937 5938 5939 5939 5939 5939 5940 5942 5942 5943 5943 5943 5943 5941 5939 5938 5936 5935 5934 5933 5932 5931 5929 5928 5927 5924 5922 5919 5915 5911 5908 5903 5899 5894 5889 5881 5874 5866 5858 5846 5838 5831 5827
5938 5939 5940 5941 5941 5940 5941 5943 5944 5944 5943 5943 5942 5941 5940 5939 5937 5936 5935 5934 5933 5931 5930 5929 5927 5924 5922 5918 5913 5911 5906 5902 5897 5891 5886 5878 5871 5862 5854 5840 5831 5823 5814
5939 5940 5940 5941 5942 5942 5942 5943 5943 5944 5943 5942 5940 5940 5939 5939 5937 5936 5936 5935 5932 5931 5930 5928 5926 5923 5919 5917 5913 5910 5905 5900 5895 5889 5883 5876 5868 5860 5850 5836 5825 5815 5804
5939 5940 5941 5941 5941 5942 5943 5943 5944 5943 5941 5940 5940 5938 5937 5937 5936 5935 5935 5934 5932 5930 5929 5927 5923 5921 5917 5915 5912 5908 5903 5898 5891 5887 5879 5871 5863 5855 5845 5834 5821 5810 5798
5938 5939 5940 5940 5941 5941 5942 5942 5942 5942 5942 5941 5940 5938 5937 5936 5935 5934 5934 5933 5931 5930 5927 5924 5923 5920 5916 5913 5909 5904 5900 5894 5888 5882 5875 5868 5857 5849 5839 5827 5816 5805 5792
5936 5937 5939 5939 5939 5940 5940 5940 5941 5940 5940 5940 5940 5939 5938 5936 5935 5934 5933 5932 5931 5929 5927 5923 5921 5918 5915 5910 5905 5900 5896 5890 5884 5878 5869 5859 5850 5845 5833 5822 5810 5798 5784
5934 5936 5937 5938 5938 5938 5939 5939 5939 5938 5939 5939 5939 5938 5938 5938 5937 5934 5933 5932 5930 5927 5926 5923 5920 5917 5913 5908 5902 5898 5893 5887 5879 5872 5866 5856 5847 5839 5828 5817 5805 5790 5778